Location: Unspecified
(40.4667°N, 0.0000°E)
Time: 03:13:36
(UTC+00:00)

Hubble Space Telescope - Visible Passes

Search period start: 23 October 2019 00:00
Search period end: 02 November 2019 00:00
Orbit: 536 x 540 km, 28.5° (Epoch: 21 October)

Date Brightness Start Highest point End Pass type
(mag) Time Alt. Az. Time Alt. Az. Time Alt. Az.
31 Oct 3.4 04:22:36 10° S 04:23:10 11° SSE 04:24:10 10° SSE visible
31 Oct 3.2 06:01:08 10° SW 06:03:35 15° S 06:06:02 10° SE visible
01 Nov 3.4 04:12:47 12° SSE 04:12:47 12° SSE 04:14:06 10° SE visible
01 Nov 3.1 05:50:27 10° SW 05:52:53 15° S 05:55:20 10° SE visible
